OEEMG LOWW-LOWI

Flight info

Callsign OEEMG
Flight time 1h 21m
Altitude 26000
Route SOVIL2B/16 SOVIL DCT GAMLI DCT NUBRA DCT VERDA DCT NANIT NANI2A LOWI
Aircraft TBM9/L-SDFGRWY/S

Departure

Time 2026-05-06 18:18
Airport Vienna International Airport (LOWW)

Arrival

Time 2026-05-06 19:39
Airport Innsbruck Airport (LOWI)
Time Latitude Longitude Altitude Speed Heading
2026-05-06 17:37 48.12693 16.53713 585 ft 0 kts 296°
2026-05-06 18:01 48.12693 16.53712 585 ft 0 kts 294°
2026-05-06 18:01 48.12696 16.53695 585 ft 5 kts 276°
2026-05-06 18:01 48.12694 16.53682 585 ft 0 kts 226°
2026-05-06 18:02 48.12684 16.53672 579 ft 2 kts 211°
2026-05-06 18:02 48.12667 16.53658 598 ft 4 kts 211°
2026-05-06 18:02 48.12654 16.53612 590 ft 7 kts 278°
2026-05-06 18:02 48.12631 16.53560 592 ft 6 kts 199°
2026-05-06 18:03 48.12596 16.53533 594 ft 6 kts 205°
2026-05-06 18:03 48.12559 16.53507 596 ft 6 kts 205°
2026-05-06 18:03 48.12519 16.53501 598 ft 6 kts 169°
2026-05-06 18:03 48.12475 16.53492 599 ft 6 kts 194°
2026-05-06 18:04 48.12436 16.53514 601 ft 8 kts 126°
2026-05-06 18:04 48.12409 16.53594 601 ft 10 kts 116°
2026-05-06 18:04 48.12377 16.53693 599 ft 10 kts 117°
2026-05-06 18:04 48.12343 16.53795 598 ft 12 kts 117°
2026-05-06 18:05 48.12306 16.53910 599 ft 12 kts 117°
2026-05-06 18:05 48.12272 16.54019 598 ft 11 kts 114°
2026-05-06 18:05 48.12247 16.54091 598 ft 12 kts 119°
2026-05-06 18:05 48.12203 16.54228 600 ft 10 kts 116°
2026-05-06 18:06 48.12184 16.54290 600 ft 10 kts 116°
2026-05-06 18:06 48.12151 16.54389 600 ft 11 kts 117°
2026-05-06 18:06 48.12118 16.54490 601 ft 10 kts 119°
2026-05-06 18:06 48.12087 16.54583 603 ft 10 kts 115°
2026-05-06 18:07 48.12057 16.54680 603 ft 11 kts 117°
2026-05-06 18:07 48.12022 16.54795 603 ft 13 kts 118°
2026-05-06 18:07 48.11986 16.54901 609 ft 11 kts 117°
2026-05-06 18:07 48.11951 16.55006 604 ft 11 kts 115°
2026-05-06 18:08 48.11918 16.55106 602 ft 11 kts 115°
2026-05-06 18:08 48.11885 16.55212 602 ft 9 kts 118°
2026-05-06 18:08 48.11856 16.55296 602 ft 9 kts 116°
2026-05-06 18:08 48.11826 16.55393 601 ft 12 kts 116°
2026-05-06 18:09 48.11796 16.55483 602 ft 7 kts 118°
2026-05-06 18:09 48.11775 16.55545 604 ft 6 kts 116°
2026-05-06 18:09 48.11756 16.55601 610 ft 6 kts 118°
2026-05-06 18:09 48.11735 16.55662 608 ft 8 kts 118°
2026-05-06 18:10 48.11718 16.55714 605 ft 4 kts 109°
2026-05-06 18:10 48.11710 16.55735 610 ft 0 kts 115°
2026-05-06 18:10 48.11691 16.55804 608 ft 11 kts 114°
2026-05-06 18:10 48.11668 16.55880 611 ft 4 kts 115°
2026-05-06 18:11 48.11657 16.55914 615 ft 0 kts 118°
2026-05-06 18:11 48.11654 16.55921 612 ft 3 kts 116°
2026-05-06 18:11 48.11644 16.55951 608 ft 8 kts 115°
2026-05-06 18:11 48.11628 16.55995 608 ft 7 kts 112°
2026-05-06 18:12 48.11612 16.56051 611 ft 7 kts 113°
2026-05-06 18:12 48.11592 16.56120 607 ft 5 kts 99°
2026-05-06 18:12 48.11624 16.56203 602 ft 12 kts 61°
2026-05-06 18:12 48.11606 16.56343 601 ft 15 kts 115°
2026-05-06 18:13 48.11561 16.56495 600 ft 17 kts 118°
2026-05-06 18:13 48.11508 16.56642 601 ft 15 kts 115°
2026-05-06 18:13 48.11461 16.56784 602 ft 15 kts 117°
2026-05-06 18:13 48.11415 16.56928 603 ft 15 kts 116°
2026-05-06 18:14 48.11374 16.57055 604 ft 13 kts 118°
2026-05-06 18:14 48.11334 16.57181 603 ft 14 kts 115°
2026-05-06 18:14 48.11295 16.57293 604 ft 11 kts 113°
2026-05-06 18:14 48.11273 16.57344 604 ft 2 kts 128°
2026-05-06 18:15 48.11262 16.57384 604 ft 6 kts 104°
2026-05-06 18:15 48.11246 16.57454 603 ft 8 kts 115°
2026-05-06 18:15 48.11231 16.57500 603 ft 7 kts 114°
2026-05-06 18:15 48.11211 16.57561 603 ft 8 kts 119°
2026-05-06 18:16 48.11184 16.57644 603 ft 10 kts 114°
2026-05-06 18:16 48.11151 16.57748 603 ft 13 kts 115°
2026-05-06 18:16 48.11104 16.57882 601 ft 16 kts 111°
2026-05-06 18:16 48.11058 16.58029 604 ft 16 kts 117°
2026-05-06 18:17 48.10997 16.58171 616 ft 16 kts 127°
2026-05-06 18:17 48.10887 16.58277 610 ft 33 kts 163°
2026-05-06 18:17 48.10487 16.58469 664 ft 80 kts 162°
2026-05-06 18:17 48.09920 16.58702 1052 ft 87 kts 166°
2026-05-06 18:18 48.09333 16.59000 1468 ft 95 kts 162°
2026-05-06 18:18 48.08750 16.59408 2003 ft 92 kts 165°
2026-05-06 18:18 48.08201 16.59894 2539 ft 92 kts 163°
2026-05-06 18:18 48.07674 16.60192 3074 ft 70 kts 202°
2026-05-06 18:19 48.07241 16.60058 3588 ft 65 kts 179°
2026-05-06 18:19 48.06859 16.60174 4013 ft 57 kts 194°
2026-05-06 18:19 48.06399 16.60088 4307 ft 67 kts 203°
2026-05-06 18:19 48.05973 16.59781 4715 ft 72 kts 216°
2026-05-06 18:20 48.05600 16.59192 5117 ft 86 kts 231°
2026-05-06 18:20 48.05378 16.58275 5539 ft 106 kts 256°
2026-05-06 18:20 48.05383 16.57084 5970 ft 122 kts 261°
2026-05-06 18:20 48.05382 16.55730 6391 ft 137 kts 263°
2026-05-06 18:21 48.05388 16.54282 6940 ft 139 kts 263°
2026-05-06 18:21 48.05389 16.52844 7544 ft 138 kts 262°
2026-05-06 18:21 48.05388 16.51403 8159 ft 138 kts 263°
2026-05-06 18:21 48.05384 16.49961 8804 ft 139 kts 263°
2026-05-06 18:22 48.05383 16.48534 9500 ft 136 kts 263°
2026-05-06 18:22 48.05379 16.47125 10118 ft 135 kts 263°
2026-05-06 18:22 48.05375 16.45729 10721 ft 134 kts 263°
2026-05-06 18:22 48.05371 16.44341 11319 ft 134 kts 263°
2026-05-06 18:23 48.05367 16.42951 11919 ft 133 kts 263°
2026-05-06 18:23 48.05363 16.41567 12520 ft 133 kts 263°
2026-05-06 18:23 48.05359 16.40170 13094 ft 136 kts 263°
2026-05-06 18:23 48.05355 16.38739 13650 ft 139 kts 263°
2026-05-06 18:24 48.05351 16.37281 14192 ft 141 kts 263°
2026-05-06 18:24 48.05346 16.35799 14699 ft 144 kts 264°
2026-05-06 18:24 48.05343 16.34301 15238 ft 145 kts 263°
2026-05-06 18:24 48.05339 16.32790 15803 ft 145 kts 263°
2026-05-06 18:25 48.05335 16.31283 16379 ft 145 kts 258°
2026-05-06 18:25 48.05269 16.29803 16949 ft 143 kts 258°
2026-05-06 18:25 48.05267 16.28317 17532 ft 143 kts 261°
2026-05-06 18:25 48.05316 16.26824 18112 ft 144 kts 265°
2026-05-06 18:26 48.05332 16.25316 18573 ft 146 kts 262°
2026-05-06 18:26 48.05320 16.23791 19050 ft 147 kts 262°
2026-05-06 18:26 48.05308 16.22256 19564 ft 149 kts 262°
2026-05-06 18:26 48.05299 16.20706 20081 ft 150 kts 262°
2026-05-06 18:27 48.05290 16.19144 20589 ft 150 kts 262°
2026-05-06 18:27 48.05283 16.17582 21103 ft 151 kts 262°
2026-05-06 18:27 48.05276 16.16015 21632 ft 151 kts 261°
2026-05-06 18:27 48.05269 16.14448 22171 ft 151 kts 262°
2026-05-06 18:28 48.05261 16.12885 22727 ft 150 kts 262°
2026-05-06 18:28 48.05252 16.11322 23262 ft 151 kts 261°
2026-05-06 18:28 48.05244 16.09751 23706 ft 155 kts 261°
2026-05-06 18:28 48.05230 16.08004 23746 ft 182 kts 263°
2026-05-06 18:29 48.05224 16.05971 23755 ft 208 kts 264°
2026-05-06 18:29 48.05219 16.03695 23756 ft 229 kts 264°
2026-05-06 18:29 48.05211 16.01220 23746 ft 246 kts 264°
2026-05-06 18:29 48.05200 15.98599 23753 ft 258 kts 265°
2026-05-06 18:30 48.05184 15.95876 23757 ft 266 kts 265°
2026-05-06 18:30 48.05168 15.93069 23755 ft 273 kts 265°
2026-05-06 18:30 48.05148 15.90212 23755 ft 278 kts 264°
2026-05-06 18:30 48.05130 15.87306 23755 ft 281 kts 264°
2026-05-06 18:31 48.05057 15.84391 23752 ft 281 kts 260°
2026-05-06 18:31 48.04985 15.81448 23749 ft 285 kts 264°
2026-05-06 18:31 48.05028 15.78472 23751 ft 288 kts 265°
2026-05-06 18:31 48.05041 15.75480 23749 ft 288 kts 263°
2026-05-06 18:32 48.04995 15.72489 23751 ft 289 kts 263°
2026-05-06 18:32 48.04956 15.69486 23750 ft 290 kts 264°
2026-05-06 18:32 48.04934 15.66472 23751 ft 291 kts 264°
2026-05-06 18:32 48.04910 15.63447 23744 ft 291 kts 264°
2026-05-06 18:33 48.04882 15.60427 23755 ft 290 kts 263°
2026-05-06 18:33 48.04854 15.57495 24202 ft 275 kts 263°
2026-05-06 18:33 48.04822 15.54707 24717 ft 262 kts 263°
2026-05-06 18:33 48.04791 15.52045 25238 ft 251 kts 262°
2026-05-06 18:34 48.04763 15.49468 25622 ft 249 kts 262°
2026-05-06 18:34 48.04731 15.46852 25636 ft 260 kts 263°
2026-05-06 18:34 48.04708 15.44105 25638 ft 268 kts 263°
2026-05-06 18:34 48.04679 15.41244 25666 ft 273 kts 263°
2026-05-06 18:35 48.04648 15.38392 25732 ft 276 kts 263°
2026-05-06 18:35 48.04669 15.35496 25735 ft 282 kts 266°
2026-05-06 18:35 48.04725 15.32593 25734 ft 285 kts 266°
2026-05-06 18:35 48.04773 15.29577 25730 ft 287 kts 265°
2026-05-06 18:36 48.04818 15.26624 25733 ft 289 kts 266°
2026-05-06 18:36 48.04867 15.23609 25731 ft 291 kts 266°
2026-05-06 18:36 48.04915 15.20547 25735 ft 291 kts 266°
2026-05-06 18:36 48.04960 15.17563 25735 ft 292 kts 266°
2026-05-06 18:37 48.05006 15.14530 25735 ft 292 kts 266°
2026-05-06 18:37 48.05036 15.12478 25723 ft 292 kts 266°
2026-05-06 18:37 48.05095 15.08449 25723 ft 293 kts 265°
2026-05-06 18:37 48.05138 15.05404 25724 ft 293 kts 266°
2026-05-06 18:38 48.05180 15.02357 25726 ft 294 kts 265°
2026-05-06 18:38 48.05222 14.99305 25725 ft 294 kts 265°
2026-05-06 18:38 48.05263 14.96262 25725 ft 293 kts 265°
2026-05-06 18:38 48.05303 14.93219 25718 ft 292 kts 265°
2026-05-06 18:39 48.05343 14.90186 25722 ft 292 kts 265°
2026-05-06 18:39 48.05379 14.87148 25721 ft 292 kts 265°
2026-05-06 18:39 48.05416 14.84110 25720 ft 292 kts 265°
2026-05-06 18:40 48.05474 14.78052 25709 ft 291 kts 265°
2026-05-06 18:40 48.05497 14.75027 25710 ft 291 kts 265°
2026-05-06 18:40 48.05521 14.71999 25709 ft 292 kts 265°
2026-05-06 18:40 48.05546 14.68964 25709 ft 291 kts 265°
2026-05-06 18:41 48.05569 14.65936 25711 ft 292 kts 265°
2026-05-06 18:41 48.05589 14.62908 25713 ft 291 kts 264°
2026-05-06 18:41 48.05606 14.59882 25718 ft 292 kts 264°
2026-05-06 18:41 48.05637 14.56850 25715 ft 291 kts 264°
2026-05-06 18:42 48.05657 14.53837 25718 ft 290 kts 264°
2026-05-06 18:42 48.05671 14.50826 25721 ft 289 kts 264°
2026-05-06 18:42 48.05680 14.47820 25722 ft 288 kts 262°
2026-05-06 18:42 48.05368 14.44914 25720 ft 280 kts 249°
2026-05-06 18:43 48.04672 14.42208 25716 ft 278 kts 243°
2026-05-06 18:43 48.03818 14.39629 25717 ft 277 kts 239°
2026-05-06 18:43 48.02960 14.37053 25719 ft 277 kts 242°
2026-05-06 18:43 48.02176 14.34414 25720 ft 278 kts 243°
2026-05-06 18:44 48.01403 14.31776 25723 ft 278 kts 242°
2026-05-06 18:44 48.00607 14.29156 25724 ft 277 kts 242°
2026-05-06 18:44 47.99805 14.26537 25723 ft 278 kts 242°
2026-05-06 18:44 47.99006 14.23903 25722 ft 278 kts 242°
2026-05-06 18:45 47.98211 14.21277 25723 ft 278 kts 242°
2026-05-06 18:45 47.97413 14.18657 25722 ft 278 kts 242°
2026-05-06 18:45 47.96613 14.16031 25720 ft 278 kts 242°
2026-05-06 18:45 47.96084 14.14297 25720 ft 278 kts 242°
2026-05-06 18:46 47.95015 14.10786 25737 ft 278 kts 242°
2026-05-06 18:46 47.94224 14.08194 25731 ft 277 kts 242°
2026-05-06 18:46 47.93424 14.05581 25725 ft 277 kts 242°
2026-05-06 18:46 47.92617 14.02946 25725 ft 276 kts 242°
2026-05-06 18:47 47.91833 14.00382 25732 ft 276 kts 242°
2026-05-06 18:47 47.91035 13.97781 25733 ft 276 kts 242°
2026-05-06 18:47 47.90234 13.95183 25732 ft 276 kts 242°
2026-05-06 18:47 47.89436 13.92586 25732 ft 275 kts 242°
2026-05-06 18:48 47.88639 13.89992 25746 ft 275 kts 242°
2026-05-06 18:48 47.87841 13.87403 25745 ft 275 kts 242°
2026-05-06 18:48 47.87044 13.84820 25751 ft 275 kts 242°
2026-05-06 18:48 47.86312 13.82165 25754 ft 278 kts 247°
2026-05-06 18:49 47.85804 13.79396 25761 ft 280 kts 252°
2026-05-06 18:49 47.85349 13.76584 25759 ft 279 kts 251°
2026-05-06 18:49 47.84885 13.73782 25759 ft 278 kts 251°
2026-05-06 18:49 47.84429 13.70979 25763 ft 279 kts 252°
2026-05-06 18:50 47.83976 13.68181 25760 ft 279 kts 252°
2026-05-06 18:50 47.83518 13.65365 25757 ft 279 kts 251°
2026-05-06 18:50 47.83062 13.62552 25767 ft 280 kts 252°
2026-05-06 18:50 47.82759 13.60684 25785 ft 281 kts 252°
2026-05-06 18:51 47.82290 13.57862 25789 ft 281 kts 252°
2026-05-06 18:51 47.81822 13.55024 25483 ft 283 kts 252°
2026-05-06 18:51 47.81367 13.52210 25113 ft 277 kts 252°
2026-05-06 18:51 47.80911 13.49445 24748 ft 273 kts 252°
2026-05-06 18:52 47.80456 13.46704 24382 ft 272 kts 252°
2026-05-06 18:52 47.80005 13.43987 24032 ft 270 kts 252°
2026-05-06 18:52 47.79559 13.41293 23704 ft 268 kts 252°
2026-05-06 18:52 47.79115 13.38601 23351 ft 267 kts 252°
2026-05-06 18:53 47.78669 13.35920 22946 ft 267 kts 252°
2026-05-06 18:53 47.78225 13.33240 22556 ft 267 kts 252°
2026-05-06 18:53 47.77783 13.30575 22154 ft 265 kts 252°
2026-05-06 18:53 47.77341 13.27921 21762 ft 265 kts 252°
2026-05-06 18:54 47.76897 13.25265 21370 ft 265 kts 252°
2026-05-06 18:54 47.76451 13.22608 21012 ft 264 kts 252°
2026-05-06 18:54 47.76011 13.19968 20645 ft 263 kts 252°
2026-05-06 18:54 47.75570 13.17329 20254 ft 263 kts 252°
2026-05-06 18:55 47.75127 13.14693 19905 ft 263 kts 252°
2026-05-06 18:55 47.74682 13.12056 19521 ft 263 kts 252°
2026-05-06 18:55 47.74239 13.09418 19154 ft 264 kts 252°
2026-05-06 18:55 47.73799 13.06804 18805 ft 263 kts 252°
2026-05-06 18:56 47.73347 13.04136 18449 ft 262 kts 252°
2026-05-06 18:56 47.72905 13.01544 17984 ft 266 kts 252°
2026-05-06 18:56 47.72454 12.98850 17339 ft 270 kts 253°
2026-05-06 18:56 47.72004 12.96142 16717 ft 270 kts 253°
2026-05-06 18:57 47.71542 12.93414 16099 ft 268 kts 252°
2026-05-06 18:57 47.71088 12.90773 15500 ft 266 kts 252°
2026-05-06 18:57 47.70634 12.88120 14928 ft 264 kts 252°
2026-05-06 18:57 47.70200 12.85556 14836 ft 248 kts 252°
2026-05-06 18:58 47.69774 12.83146 14831 ft 237 kts 251°
2026-05-06 18:58 47.69370 12.80817 14829 ft 231 kts 252°
2026-05-06 18:58 47.68978 12.78530 14832 ft 226 kts 252°
2026-05-06 18:58 47.68592 12.76280 14832 ft 224 kts 251°
2026-05-06 18:59 47.68206 12.74037 14833 ft 228 kts 252°
2026-05-06 18:59 47.67808 12.71724 14830 ft 233 kts 251°
2026-05-06 18:59 47.67408 12.69382 14848 ft 236 kts 252°
2026-05-06 18:59 47.67002 12.66998 14857 ft 241 kts 252°
2026-05-06 19:00 47.66582 12.64582 14856 ft 243 kts 252°
2026-05-06 19:00 47.66157 12.62154 14858 ft 242 kts 252°
2026-05-06 19:00 47.65735 12.59725 14866 ft 244 kts 252°
2026-05-06 19:00 47.65315 12.57284 14868 ft 245 kts 252°
2026-05-06 19:01 47.64890 12.54837 14867 ft 246 kts 252°
2026-05-06 19:01 47.64457 12.52387 14865 ft 244 kts 251°
2026-05-06 19:01 47.64037 12.49946 14865 ft 244 kts 252°
2026-05-06 19:01 47.63618 12.47517 14870 ft 244 kts 252°
2026-05-06 19:02 47.63187 12.45072 14864 ft 244 kts 251°
2026-05-06 19:02 47.62761 12.42643 14861 ft 243 kts 252°
2026-05-06 19:02 47.62332 12.40215 14855 ft 244 kts 252°
2026-05-06 19:02 47.61951 12.37757 14853 ft 245 kts 255°
2026-05-06 19:03 47.61665 12.35284 14855 ft 243 kts 257°
2026-05-06 19:03 47.61389 12.32815 14858 ft 243 kts 256°
2026-05-06 19:03 47.61122 12.30339 14847 ft 244 kts 257°
2026-05-06 19:03 47.60867 12.27856 14849 ft 244 kts 257°
2026-05-06 19:04 47.60616 12.25359 14852 ft 246 kts 257°
2026-05-06 19:04 47.60354 12.22845 14856 ft 247 kts 257°
2026-05-06 19:04 47.60092 12.20340 14855 ft 246 kts 257°
2026-05-06 19:04 47.59827 12.17842 14851 ft 246 kts 257°
2026-05-06 19:05 47.59563 12.15336 14854 ft 246 kts 257°
2026-05-06 19:05 47.59301 12.12831 14850 ft 246 kts 257°
2026-05-06 19:05 47.59034 12.10304 14848 ft 250 kts 257°
2026-05-06 19:05 47.58763 12.07745 14853 ft 253 kts 257°
2026-05-06 19:06 47.58495 12.05169 14842 ft 255 kts 257°
2026-05-06 19:06 47.58227 12.02571 14834 ft 255 kts 257°
2026-05-06 19:06 47.57959 11.99981 14802 ft 254 kts 257°
2026-05-06 19:06 47.57688 11.97426 14458 ft 248 kts 257°
2026-05-06 19:07 47.57383 11.94948 14095 ft 242 kts 253°
2026-05-06 19:07 47.57044 11.92510 13723 ft 241 kts 253°
2026-05-06 19:07 47.56728 11.90112 13316 ft 239 kts 253°
2026-05-06 19:07 47.56426 11.87710 12896 ft 236 kts 254°
2026-05-06 19:08 47.56147 11.85346 12838 ft 223 kts 254°
2026-05-06 19:08 47.55893 11.83125 12830 ft 215 kts 253°
2026-05-06 19:08 47.55639 11.80955 12825 ft 215 kts 253°
2026-05-06 19:08 47.55374 11.78732 12832 ft 222 kts 253°
2026-05-06 19:09 47.55142 11.76447 12850 ft 233 kts 258°
2026-05-06 19:09 47.54917 11.74024 12841 ft 241 kts 257°
2026-05-06 19:09 47.54655 11.71551 12845 ft 245 kts 256°
2026-05-06 19:09 47.54365 11.69036 12667 ft 252 kts 256°
2026-05-06 19:10 47.54070 11.66460 12462 ft 256 kts 257°
2026-05-06 19:10 47.53767 11.63840 12257 ft 260 kts 256°
2026-05-06 19:10 47.53458 11.61189 12058 ft 264 kts 257°
2026-05-06 19:10 47.53149 11.58500 11862 ft 266 kts 257°
2026-05-06 19:11 47.52836 11.55825 11826 ft 261 kts 257°
2026-05-06 19:11 47.52521 11.53205 11825 ft 256 kts 256°
2026-05-06 19:11 47.52213 11.50621 11826 ft 255 kts 256°
2026-05-06 19:11 47.51915 11.48055 11825 ft 252 kts 257°
2026-05-06 19:12 47.51625 11.45511 11827 ft 252 kts 257°
2026-05-06 19:12 47.51327 11.42949 11822 ft 252 kts 256°
2026-05-06 19:12 47.51030 11.40399 11824 ft 251 kts 256°
2026-05-06 19:12 47.50736 11.37858 11829 ft 249 kts 257°
2026-05-06 19:13 47.50435 11.35337 11826 ft 249 kts 256°
2026-05-06 19:13 47.50131 11.32808 11837 ft 250 kts 257°
2026-05-06 19:13 47.49831 11.30271 11832 ft 251 kts 256°
2026-05-06 19:13 47.49521 11.27729 11827 ft 251 kts 256°
2026-05-06 19:14 47.49209 11.25188 11824 ft 251 kts 256°
2026-05-06 19:14 47.48897 11.22650 11832 ft 251 kts 256°
2026-05-06 19:14 47.48584 11.20106 11830 ft 251 kts 256°
2026-05-06 19:14 47.48270 11.17569 11828 ft 251 kts 256°
2026-05-06 19:15 47.47960 11.15037 11832 ft 250 kts 256°
2026-05-06 19:15 47.47650 11.12508 11835 ft 251 kts 256°
2026-05-06 19:15 47.47339 11.09965 11825 ft 251 kts 256°
2026-05-06 19:15 47.47022 11.07415 11693 ft 255 kts 256°
2026-05-06 19:16 47.46705 11.04808 11532 ft 259 kts 256°
2026-05-06 19:16 47.46381 11.02176 11526 ft 261 kts 256°
2026-05-06 19:16 47.46058 10.99518 11522 ft 264 kts 257°
2026-05-06 19:16 47.45738 10.96843 11526 ft 265 kts 257°
2026-05-06 19:17 47.45413 10.94152 11513 ft 267 kts 257°
2026-05-06 19:17 47.45088 10.91444 11515 ft 268 kts 257°
2026-05-06 19:17 47.44634 10.88794 11508 ft 267 kts 245°
2026-05-06 19:17 47.43725 10.86413 11515 ft 264 kts 236°
2026-05-06 19:18 47.42713 10.84151 11497 ft 266 kts 234°
2026-05-06 19:18 47.41659 10.81868 11264 ft 272 kts 233°
2026-05-06 19:18 47.40584 10.79550 11012 ft 275 kts 234°
2026-05-06 19:18 47.39347 10.77413 10775 ft 275 kts 217°
2026-05-06 19:19 47.37620 10.76346 10618 ft 270 kts 188°
2026-05-06 19:19 47.35781 10.76650 10611 ft 265 kts 162°
2026-05-06 19:19 47.34116 10.77808 10621 ft 265 kts 155°
2026-05-06 19:19 47.32486 10.78961 10608 ft 250 kts 155°
2026-05-06 19:20 47.31070 10.80221 10611 ft 234 kts 143°
2026-05-06 19:20 47.30082 10.82112 10628 ft 237 kts 119°
2026-05-06 19:20 47.29701 10.84483 10618 ft 242 kts 93°
2026-05-06 19:20 47.29774 10.86943 10613 ft 237 kts 90°
2026-05-06 19:21 47.29879 10.89423 9922 ft 247 kts 88°
2026-05-06 19:21 47.30002 10.91758 9768 ft 209 kts 89°
2026-05-06 19:21 47.30145 10.93826 9340 ft 192 kts 86°
2026-05-06 19:21 47.30295 10.95620 9100 ft 167 kts 85°
2026-05-06 19:22 47.30422 10.97397 8331 ft 183 kts 85°
2026-05-06 19:22 47.30531 10.99299 7753 ft 183 kts 88°
2026-05-06 19:22 47.30477 11.01046 7588 ft 158 kts 100°
2026-05-06 19:22 47.30179 11.02607 7245 ft 152 kts 110°
2026-05-06 19:23 47.29924 11.04044 7086 ft 143 kts 94°
2026-05-06 19:23 47.29954 11.05543 6835 ft 163 kts 85°
2026-05-06 19:23 47.30090 11.07351 6560 ft 187 kts 84°
2026-05-06 19:23 47.30127 11.09335 6191 ft 201 kts 90°
2026-05-06 19:24 47.30118 11.11376 5875 ft 191 kts 89°
2026-05-06 19:24 47.29942 11.13266 5482 ft 182 kts 111°
2026-05-06 19:24 47.29356 11.14889 5238 ft 184 kts 120°
2026-05-06 19:24 47.28615 11.16529 5180 ft 198 kts 122°
2026-05-06 19:25 47.27902 11.18254 4684 ft 190 kts 119°
2026-05-06 19:25 47.27295 11.19901 4279 ft 175 kts 116°
2026-05-06 19:25 47.26775 11.21429 4010 ft 158 kts 112°
2026-05-06 19:25 47.26338 11.22851 3691 ft 148 kts 111°
2026-05-06 19:26 47.25974 11.24232 3312 ft 141 kts 108°
2026-05-06 19:26 47.25683 11.25575 2999 ft 133 kts 104°
2026-05-06 19:26 47.25514 11.26804 2857 ft 106 kts 96°
2026-05-06 19:26 47.25514 11.27733 2721 ft 83 kts 89°
2026-05-06 19:27 47.25550 11.28648 2661 ft 98 kts 90°
2026-05-06 19:27 47.25599 11.29627 2446 ft 90 kts 89°
2026-05-06 19:27 47.25666 11.30556 2322 ft 97 kts 90°
2026-05-06 19:27 47.25747 11.31508 2191 ft 93 kts 90°
2026-05-06 19:28 47.25846 11.32441 2042 ft 88 kts 94°
2026-05-06 19:28 47.25916 11.33266 1932 ft 74 kts 95°
2026-05-06 19:28 47.25990 11.33948 1912 ft 59 kts 95°
2026-05-06 19:28 47.26072 11.34563 1992 ft 72 kts 91°
2026-05-06 19:29 47.26168 11.35257 2311 ft 70 kts 86°
2026-05-06 19:29 47.26282 11.36167 2603 ft 100 kts 78°
2026-05-06 19:29 47.26360 11.37298 3036 ft 123 kts 80°
2026-05-06 19:29 47.26450 11.38649 3451 ft 142 kts 79°
2026-05-06 19:30 47.26605 11.40179 3757 ft 161 kts 75°
2026-05-06 19:30 47.26888 11.41900 3907 ft 178 kts 73°
2026-05-06 19:30 47.27257 11.43651 4090 ft 185 kts 75°
2026-05-06 19:30 47.27563 11.45519 4243 ft 189 kts 81°
2026-05-06 19:31 47.27470 11.47424 4340 ft 183 kts 109°
2026-05-06 19:31 47.26848 11.48940 4472 ft 168 kts 134°
2026-05-06 19:31 47.24712 11.49707 4656 ft 173 kts 197°
2026-05-06 19:32 47.23737 11.48598 4527 ft 183 kts 234°
2026-05-06 19:32 47.23444 11.46819 4348 ft 174 kts 261°
2026-05-06 19:32 47.23396 11.45052 4211 ft 176 kts 266°
2026-05-06 19:32 47.23360 11.43178 4030 ft 189 kts 266°
2026-05-06 19:33 47.23301 11.41230 3996 ft 190 kts 266°
2026-05-06 19:33 47.23282 11.39308 4025 ft 184 kts 270°
2026-05-06 19:33 47.23332 11.37452 4060 ft 185 kts 270°
2026-05-06 19:33 47.23448 11.35577 3861 ft 184 kts 275°
2026-05-06 19:34 47.23623 11.33734 3742 ft 178 kts 274°
2026-05-06 19:34 47.23721 11.31942 3759 ft 173 kts 271°
2026-05-06 19:34 47.23794 11.30197 3640 ft 172 kts 270°
2026-05-06 19:34 47.23843 11.28452 3569 ft 168 kts 270°
2026-05-06 19:35 47.23853 11.26765 3493 ft 162 kts 269°
2026-05-06 19:35 47.24103 11.25218 3631 ft 152 kts 292°
2026-05-06 19:35 47.24631 11.23896 3809 ft 148 kts 316°
2026-05-06 19:35 47.25583 11.23376 3868 ft 153 kts
2026-05-06 19:36 47.26239 11.23758 3803 ft 158 kts 42°
2026-05-06 19:36 47.26397 11.25131 3486 ft 143 kts 117°
2026-05-06 19:36 47.25832 11.26283 3262 ft 128 kts 128°
2026-05-06 19:36 47.25405 11.27664 2951 ft 98 kts 95°
2026-05-06 19:37 47.25432 11.28606 2695 ft 89 kts 84°
2026-05-06 19:37 47.25491 11.29240 2588 ft 94 kts 83°
2026-05-06 19:37 47.25590 11.30180 2429 ft 91 kts 88°
2026-05-06 19:37 47.25682 11.31087 2332 ft 92 kts 89°
2026-05-06 19:38 47.25784 11.32039 2184 ft 89 kts 91°
2026-05-06 19:38 47.25872 11.32872 2036 ft 79 kts 90°
2026-05-06 19:38 47.25958 11.33624 1906 ft 62 kts 98°
2026-05-06 19:38 47.25993 11.34200 1901 ft 52 kts 83°
2026-05-06 19:39 47.26045 11.34685 1901 ft 44 kts 81°
2026-05-06 19:39 47.26089 11.35087 1902 ft 34 kts 77°
2026-05-06 19:39 47.26072 11.35256 1901 ft 14 kts 156°
2026-05-06 19:39 47.26003 11.35273 1897 ft 3 kts 166°
2026-05-06 19:40 47.25992 11.35276 1902 ft 0 kts 166°
2026-05-06 19:40 47.25966 11.35284 1892 ft 10 kts 167°
2026-05-06 19:41 47.25932 11.35298 1896 ft 2 kts 156°
2026-05-06 19:41 47.25927 11.35301 1899 ft 1 kts 139°
2026-05-06 19:41 47.25923 11.35340 1902 ft 6 kts 82°
2026-05-06 19:41 47.25899 11.35386 1902 ft 8 kts 157°
2026-05-06 19:42 47.25851 11.35408 1902 ft 1 kts 245°
2026-05-06 19:42 47.25851 11.35404 1894 ft 0 kts 261°